Home   Weather   Charleroi   Past weeks

Flag for Belgium Past Weather in Charleroi, Belgium — Yesterday and Last 2 Weeks

Now
28 °F

Clear.


Feels Like: 21 °F
Forecast: 27 / 40 °F
Wind: 7 mph from East

Location: Charleroi / Gosselies

Current Time: Dec 4, 2016 at 12:55:38 am

Latest Report: Dec 4, 2016 at 12:20 am


Visibility: 10 mi

Pressure: 30.24 "Hg

Humidity: 86%

Dew Point: 25 °F

Location of CharleroiLocation

Past Weather in Charleroi — Graph

°F

Charleroi Temperature Yesterday

Maximum temperature yesterday: 41 °F (at 12:20 am)
Minimum temperature yesterday: 28 °F (at 10:50 pm)
Average temperature yesterday: 35 °F

High & Low Weather Summary for the Past Weeks

 TemperatureHumidityPressure
High57 °F (Nov 21, 2:20 pm)100% (Nov 27, 3:50 am)30.57 "Hg (Nov 27, 3:50 am)
Low25 °F (Nov 29, 5:50 am)42% (Dec 1, 1:20 pm)29.21 "Hg (Nov 20, 7:20 am)
Average41 °F82%30.06 "Hg
* Reported Nov 18 11:20 pm — Dec 3 11:20 pm, Charleroi, Weather by CustomWeather, © 2016

Note: Actual official high and low records may vary slightly from our data, if they occured in-between our weather recording intervals... More about our weather records

Advertising

Charleroi Weather History for the Previous 24 Hours

Scroll right to see more
 ConditionsComfort  
Time TempWeatherWind HumidityBarometerVisibility
11:20 pm
Sat, Dec 3
28 °FClear.7 mph86%30.24 "Hg10 mi
10:50 pm28 °FClear.7 mph86%30.24 "Hg10 mi
10:20 pm30 °FClear.7 mph86%30.24 "Hg10 mi
9:50 pm30 °FClear.7 mph93%30.24 "Hg10 mi
9:20 pm30 °FClear.8 mph93%30.24 "Hg10 mi
8:50 pm32 °FClear.9 mph87%30.24 "Hg10 mi
8:20 pm30 °FClear.9 mph86%30.24 "Hg10 mi
7:50 pm32 °FClear.9 mph87%30.24 "Hg10 mi
7:20 pm32 °FClear.10 mph87%30.24 "Hg10 mi
6:50 pm32 °FClear.10 mph87%30.24 "Hg10 mi
6:20 pm32 °FClear.9 mph87%30.24 "Hg10 mi
5:50 pm34 °FClear.9 mph87%30.24 "Hg10 mi
5:20 pm34 °FPassing clouds.9 mph87%30.24 "HgN/A
4:50 pm36 °FClear.10 mph81%30.24 "Hg10 mi
4:20 pm36 °FSunny.9 mph81%30.24 "Hg10 mi
3:50 pm37 °FSunny.10 mph75%30.24 "Hg10 mi
3:20 pm39 °FSunny.12 mph70%30.24 "Hg10 mi
2:50 pm39 °FSunny.12 mph70%30.24 "Hg10 mi
2:20 pm39 °FSunny.12 mph70%30.24 "Hg10 mi
1:50 pm41 °FSunny.12 mph66%30.24 "Hg10 mi
1:20 pm39 °FSunny.12 mph70%30.24 "Hg10 mi
12:50 pm39 °FSunny.13 mph70%30.24 "Hg10 mi
12:20 pm39 °FSunny.14 mph75%30.27 "Hg10 mi
11:50 am37 °FSunny.10 mph81%30.27 "Hg10 mi
11:20 am34 °FPassing clouds.8 mph93%30.27 "Hg4 mi
10:50 am34 °FFog.8 mph93%30.27 "Hg1 mi
10:20 am34 °FFog.8 mph93%30.27 "Hg1 mi
9:50 am32 °FFog.8 mph93%30.27 "Hg0 mi
9:20 am34 °FFog.8 mph93%30.27 "Hg0 mi
8:50 am34 °FFog.8 mph93%30.27 "Hg0 mi
8:20 am34 °FFog.7 mph93%30.24 "Hg0 mi
7:50 am34 °FFog.9 mph100%30.24 "Hg0 mi
7:20 am34 °FFog.7 mph100%30.24 "Hg0 mi
6:50 am36 °FFog.7 mph93%30.24 "Hg0 mi
6:20 am34 °FFog.7 mph100%30.24 "Hg0 mi
5:50 am36 °FFog.9 mph93%30.24 "Hg0 mi
5:20 am37 °FFog.8 mph93%30.24 "Hg0 mi
4:50 am37 °FFog.9 mph93%30.24 "Hg1 mi
4:20 am37 °FFog.10 mph93%30.21 "Hg1 mi
3:50 am37 °FFog.9 mph93%30.21 "Hg1 mi
2:50 am39 °FFog.7 mph87%30.21 "Hg2 mi
2:20 am39 °FFog.7 mph93%30.21 "Hg2 mi
1:50 am41 °FFog.7 mph87%30.24 "Hg2 mi
1:20 am41 °FFog.7 mph93%30.24 "Hg2 mi
12:50 am41 °FFog.7 mph93%30.24 "Hg2 mi
12:20 am41 °FFog.8 mph93%30.24 "Hg2 mi
Weather by CustomWeather, © 2016

See weather overviewHow to use our weather pages